Simultaneous Nadir Overpasses (SNOs) Predictions

Prediction of SNOs between GOES-14 and AQUA Satellite Orbit:

Table of predicted SNOs for the next 14.0 days since TLE Epoch: 4/6/2024
Index Date Time (GOES-14) GOES-14 Lat,Lon AQUA Lat,Lon Distance(km) Time Diff (sec)
1 04/06/2024 09:34:01 0.17,-108.52 0.84,-111.68 359.05 80
2 04/08/2024 09:15:23 0.17,-108.53 0.03,-107.77 85.83 80
3 04/08/2024 21:35:49 -0.16,-108.54 -1.06,-112.72 475.53 80
4 04/10/2024 21:19:51 -0.16,-108.55 -0.21,-108.82 30.37 80
5 04/12/2024 21:06:32 -0.17,-108.56 0.62,-104.91 414.85 80
6 04/13/2024 09:26:49 0.16,-108.56 0.42,-109.82 143.69 80
7 04/15/2024 09:08:09 0.17,-108.56 -0.38,-105.91 301.62 80
8 04/15/2024 21:28:34 -0.16,-108.56 -0.66,-110.85 260.16 80
9 04/17/2024 21:15:14 -0.17,-108.57 0.19,-106.94 186.07 80
10 04/18/2024 09:35:30 0.16,-108.58 0.89,-111.84 371.36 80
